Theta_e
336 335 336 337 336 336 336 336 336 336 336 336 337 337 336 334 333 332 332 332 331 330 330 330 329 329 328 329 330 330 331 333 334 334 333 334 335 331 329 328 325 326 329 330 331 329 329 329 328 328 326 326 328 327 326 328 326 322 322 323 320 316 311 307 305 309 311 310 311 315 316 316 318 320 319 320 320 320 319 320 320 320 320 320 319
335 335 335 335 335 335 335 335 336 336 335 336 336 336 335 334 334 333 333 332 332 330 329 329 329 328 327 328 329 329 330 332 333 333 333 334 336 333 329 328 326 325 326 328 330 329 329 328 327 328 327 326 327 326 326 328 327 326 326 327 325 323 319 313 307 305 305 306 310 314 313 312 315 318 318 319 320 319 319 320 319 319 319 318 318
334 334 334 334 334 333 334 334 335 336 335 335 335 336 335 334 334 334 334 333 332 330 329 329 328 328 327 327 328 329 329 330 331 332 332 333 335 335 332 328 326 325 325 326 328 330 329 328 327 327 328 327 326 326 326 326 327 327 328 328 327 325 323 320 313 307 304 304 307 308 308 309 312 315 316 317 319 319 319 319 319 318 318 318 318
333 334 333 333 334 333 333 334 335 335 335 334 333 335 335 334 335 335 334 333 332 331 329 329 328 328 327 327 327 328 328 328 330 330 331 333 334 336 334 331 328 325 325 326 326 328 329 329 327 327 328 327 326 326 325 325 326 327 328 328 328 326 324 321 317 312 308 306 305 304 305 306 307 310 310 312 316 318 318 318 318 318 318 318 318
333 333 333 333 334 333 333 333 334 334 335 334 333 334 334 334 335 334 334 333 333 331 330 330 329 328 328 327 327 328 327 328 328 330 331 332 333 334 334 333 332 328 326 325 326 327 328 329 328 327 327 327 326 326 326 325 324 325 326 326 327 327 325 322 319 316 314 311 308 306 305 304 303 305 306 310 313 316 318 318 318 318 318 318 318
333 333 333 333 333 334 333 334 334 334 334 334 334 334 333 334 334 333 334 333 333 331 331 331 330 329 329 328 328 327 328 328 328 330 331 332 333 334 333 333 334 332 329 327 326 326 327 329 329 328 326 326 326 326 326 325 325 325 325 325 326 327 326 324 322 319 316 316 313 311 308 306 304 302 304 309 311 311 315 318 318 318 318 318 317
333 333 333 332 333 333 333 333 333 333 334 334 334 334 333 334 334 333 333 334 334 332 331 332 331 330 329 330 329 328 328 328 329 329 330 332 332 334 335 333 333 333 332 330 329 326 326 328 329 329 328 327 326 326 326 326 326 325 324 326 326 326 326 324 324 323 320 319 316 314 313 311 308 304 301 305 307 307 310 316 318 318 318 317 317
333 332 332 332 332 333 333 333 333 333 334 334 334 333 333 333 334 333 333 333 333 332 332 332 332 331 331 330 330 329 329 329 330 329 330 330 331 333 334 334 334 333 332 331 331 329 327 327 328 329 330 328 327 327 326 326 327 325 323 326 327 326 325 323 324 325 324 322 318 315 314 314 313 309 303 301 303 304 307 312 315 317 318 317 316
333 333 333 332 333 333 333 333 333 333 333 334 332 332 333 333 333 334 334 333 332 332 332 332 332 331 331 331 330 330 331 331 331 331 331 331 331 332 332 334 334 333 332 332 332 332 330 327 327 328 329 329 329 328 326 326 328 326 324 326 328 327 327 325 324 325 326 325 321 318 317 317 318 315 309 302 300 302 305 308 310 312 314 316 317
332 332 333 333 333 333 333 333 332 333 333 333 332 332 332 332 333 335 335 334 333 332 332 332 332 332 332 331 331 331 331 331 331 331 332 332 331 330 332 334 334 333 333 333 333 333 332 330 328 328 328 328 329 328 328 328 329 329 326 326 328 328 328 327 325 325 326 327 325 322 321 321 320 319 315 308 302 300 301 304 305 306 309 313 316
331 332 333 333 332 332 333 332 332 333 333 333 332 332 332 333 334 334 334 334 333 333 333 332 332 332 332 332 331 331 331 331 331 332 332 333 331 330 331 333 335 334 333 332 333 333 332 331 330 329 328 328 329 329 329 329 330 330 330 328 328 328 328 327 326 325 325 326 327 325 324 323 322 320 318 313 307 303 300 300 302 303 305 308 313
330 331 332 332 332 332 332 332 332 333 333 333 332 332 332 333 334 334 333 332 331 331 332 332 332 332 332 331 331 331 331 331 331 332 331 332 332 332 332 333 333 334 333 333 333 333 332 331 330 330 329 329 330 329 329 329 329 330 330 330 330 329 329 329 328 326 325 325 326 327 326 325 324 323 321 317 312 307 303 301 300 301 302 303 308
329 330 331 331 331 331 331 331 332 332 332 332 331 331 332 333 333 333 333 331 330 330 330 330 331 331 331 331 332 331 331 331 331 331 331 332 333 333 333 333 333 333 333 333 333 333 332 330 330 329 328 329 330 329 329 329 329 329 329 330 330 330 330 330 330 329 328 327 326 326 326 326 326 325 324 321 316 311 307 305 303 301 301 300 303
329 329 329 330 330 331 331 331 331 331 331 331 331 331 332 332 333 332 332 331 331 331 330 330 330 331 332 331 331 331 331 332 331 330 330 330 331 332 332 332 332 332 332 332 331 331 331 330 330 329 327 328 329 329 329 329 329 329 329 330 330 330 330 330 330 330 329 329 328 326 326 326 326 326 326 325 321 316 311 310 307 304 303 300 300
328 328 328 328 328 329 329 329 331 331 331 331 331 331 331 332 332 331 331 331 331 331 331 331 330 330 332 331 330 331 330 331 332 331 331 331 330 330 330 330 330 331 331 331 330 330 330 329 329 329 328 327 328 328 328 328 328 329 329 329 329 330 330 329 330 330 330 329 329 328 327 326 325 326 326 326 325 322 316 313 312 310 308 305 301
327 327 327 327 327 327 328 328 329 330 331 331 330 330 331 331 331 331 331 331 331 331 331 331 331 330 330 329 329 330 329 329 329 329 330 331 330 330 330 329 330 330 331 330 330 330 330 329 328 329 328 327 327 326 327 326 327 328 328 328 328 328 329 329 329 330 330 330 329 329 328 326 325 325 325 326 325 325 322 319 316 315 314 311 307
326 326 325 326 327 326 326 327 328 329 330 330 330 330 330 331 331 331 331 331 330 330 330 331 331 331 330 329 329 329 329 328 328 328 329 329 329 329 329 330 330 330 330 329 328 327 327 326 327 328 327 328 328 327 327 327 328 328 328 328 327 326 327 328 329 330 330 331 330 330 329 328 327 325 325 325 324 324 324 323 321 319 319 318 316
326 326 325 326 326 326 326 327 327 328 328 329 329 329 330 330 330 331 331 331 330 330 330 330 330 330 330 330 331 330 330 329 329 327 327 328 328 328 328 329 329 329 330 329 328 327 326 326 326 327 327 328 329 329 328 328 327 327 328 327 327 326 326 326 327 328 329 330 331 331 330 329 328 327 326 326 325 324 324 323 323 322 322 321 321
325 325 325 325 326 326 326 327 327 327 327 326 327 327 327 327 328 330 330 330 330 330 330 330 330 329 330 330 330 331 330 330 329 327 327 327 326 326 326 327 327 328 329 329 329 329 328 327 327 328 328 329 329 329 328 328 327 327 327 327 326 326 326 326 326 327 327 328 329 330 331 330 329 328 327 327 327 326 325 324 323 323 323 322 322
324 325 325 325 325 325 326 327 326 326 325 325 325 325 325 326 326 327 328 329 330 330 330 330 330 329 329 329 329 329 330 331 330 329 328 328 326 325 325 325 325 326 327 328 328 328 328 327 327 328 328 329 328 328 327 327 327 327 326 326 326 326 326 326 326 326 326 327 328 329 329 330 330 329 328 328 328 328 328 327 325 325 324 324 324
325 325 324 324 323 324 325 325 325 324 324 324 324 324 325 326 327 328 328 330 330 330 330 330 330 330 329 329 329 329 329 330 330 329 329 328 326 326 325 325 324 323 324 326 326 326 326 325 325 326 326 327 327 326 326 326 326 325 325 325 326 326 326 326 326 326 326 327 327 328 328 328 329 328 328 328 328 328 329 328 327 326 325 324 323
324 325 324 322 323 323 323 324 324 323 322 322 322 323 324 325 327 328 328 329 329 329 330 329 329 329 329 329 329 329 329 329 329 329 328 327 326 326 325 325 324 322 322 323 324 323 323 322 322 322 323 324 324 324 325 326 324 323 323 324 324 325 325 326 326 326 326 326 326 327 327 327 327 327 328 328 329 329 328 328 327 327 327 326 325
323 323 323 322 321 322 323 322 323 322 321 321 321 322 323 324 324 324 325 327 327 328 328 328 328 329 329 329 328 329 328 328 328 328 327 326 325 324 323 322 322 321 319 320 319 319 319 319 319 319 319 321 321 320 321 321 318 316 317 319 320 321 322 323 324 325 325 325 325 326 326 327 327 327 327 328 329 329 329 328 328 328 328 328 328
322 322 321 321 320 321 322 321 321 320 320 321 322 321 321 321 321 321 322 323 324 325 326 326 327 327 328 327 326 327 326 326 327 326 325 324 324 322 320 319 320 319 318 318 317 316 316 316 316 316 317 318 318 316 315 314 311 311 312 314 314 315 316 317 319 321 322 323 323 323 324 325 326 327 327 328 328 328 328 329 329 329 329 328 328
321 320 320 319 319 320 320 319 319 319 320 321 321 321 320 319 318 319 319 320 321 321 322 323 323 324 324 323 323 322 322 322 323 325 325 324 323 323 321 320 320 319 318 317 316 315 314 315 315 315 315 316 315 315 313 311 310 310 311 311 311 312 312 312 313 314 316 317 318 319 320 321 323 324 325 326 327 326 325 326 327 328 328 328 328
320 320 319 317 317 318 317 316 316 317 318 320 319 320 320 318 317 318 318 319 319 318 319 320 320 320 320 318 318 317 317 317 318 320 322 322 322 322 321 320 319 319 317 316 316 315 313 313 313 314 314 314 314 314 313 312 309 309 309 309 309 309 309 309 309 310 311 312 313 314 314 315 317 318 319 320 322 323 323 322 324 325 326 326 326
319 320 319 317 316 315 315 314 314 314 315 317 318 318 318 317 316 317 317 317 317 316 316 317 317 318 317 316 314 314 314 314 314 315 317 319 320 320 319 319 318 318 317 316 315 314 312 311 311 312 312 312 312 311 311 310 309 308 309 309 308 308 308 308 309 309 309 309 309 310 310 311 312 312 312 313 314 315 316 317 318 320 320 319 320
319 319 318 317 316 315 314 314 313 313 314 315 316 316 317 316 315 316 315 315 315 315 315 315 315 316 316 315 313 313 314 313 313 313 314 316 318 318 318 317 317 317 317 316 315 313 312 310 308 308 310 311 310 309 309 309 308 309 310 309 307 308 308 308 308 308 308 309 309 309 309 309 309 310 310 310 310 310 311 312 312 313 314 314 314
318 319 318 317 316 316 316 316 315 314 314 314 314 315 316 315 315 315 314 313 313 314 314 314 315 314 315 315 313 313 314 314 314 314 314 315 316 317 317 317 317 316 316 316 316 314 311 309 307 306 306 307 308 308 308 308 307 309 310 308 307 307 307 307 308 307 308 308 308 308 309 309 309 309 309 309 309 309 309 310 310 310 311 311 311
317 318 318 317 317 317 317 318 317 315 314 314 314 314 314 315 314 314 314 313 313 313 314 314 315 314 315 315 314 314 315 315 315 315 315 314 313 314 315 315 316 316 315 315 315 315 311 307 306 304 304 304 306 306 306 305 305 307 308 307 306 305 305 306 306 307 307 307 307 308 308 308 308 308 308 309 309 309 309 309 309 310 310 310 310
316 317 318 317 317 318 318 318 318 317 316 316 315 315 314 314 314 314 314 314 313 313 314 314 314 314 314 315 314 314 315 315 314 315 314 314 312 311 312 313 315 316 315 315 315 314 311 307 304 303 304 304 304 305 305 303 302 304 307 306 304 303 304 304 303 303 305 305 306 307 307 307 307 307 307 307 308 308 308 308 308 308 309 309 309
317 317 317 317 317 317 317 317 318 317 317 317 317 316 315 314 314 313 314 314 313 313 313 313 314 314 313 314 313 314 314 314 313 313 313 312 312 311 310 311 313 314 314 315 315 312 309 306 304 304 303 304 304 305 305 303 302 303 305 304 302 303 306 306 302 299 300 301 301 302 304 304 305 306 306 306 307 307 307 308 308 308 308 308 308
318 317 317 317 317 317 317 317 318 318 317 317 318 318 317 316 315 314 314 314 313 312 312 312 313 313 312 312 312 312 313 313 312 312 311 311 311 310 310 310 311 312 312 313 313 310 307 305 305 304 304 305 305 305 305 306 305 304 304 304 303 303 305 306 305 301 297 297 298 298 299 299 300 301 302 303 303 304 305 306 306 307 307 307 308
319 318 318 317 317 317 316 317 317 317 317 317 318 318 318 318 317 316 316 315 314 314 314 313 312 312 313 312 312 312 313 313 312 312 311 311 310 310 310 309 310 311 311 311 312 310 307 306 305 304 305 305 305 305 305 305 305 304 304 304 303 303 302 303 305 304 298 296 296 296 296 297 297 297 298 298 299 299 300 301 302 303 304 305 306
319 319 318 318 318 317 317 317 317 317 317 317 317 318 318 318 318 318 318 317 316 316 315 314 313 313 313 314 313 312 313 313 313 312 312 311 311 310 310 310 310 310 310 311 311 310 309 307 306 306 306 306 306 305 305 305 305 305 305 305 304 303 303 302 303 303 299 296 296 296 296 296 296 296 296 296 296 297 297 297 298 298 299 300 301
321 320 319 318 318 318 319 319 319 319 319 319 319 319 319 319 318 318 318 318 317 317 317 317 315 315 315 315 314 313 313 314 313 312 312 312 311 310 310 310 310 310 310 310 311 311 310 309 308 307 307 307 306 305 305 306 306 306 306 305 305 305 305 304 303 303 300 298 297 297 296 296 296 296 296 296 296 296 296 296 297 297 297 297 298
322 321 321 320 320 320 320 320 320 321 320 320 320 320 320 320 319 319 319 318 318 318 318 317 317 316 316 316 315 315 314 314 314 313 312 312 311 310 310 310 310 310 310 310 310 311 311 310 309 308 308 308 307 306 306 306 307 307 307 307 306 306 306 306 305 303 301 300 300 299 298 298 298 297 296 296 296 296 296 296 296 296 296 297 297
322 323 322 322 321 322 321 321 321 321 321 321 321 321 321 321 320 320 320 319 318 318 318 318 316 316 316 316 316 315 315 314 315 314 313 312 310 309 309 309 309 309 309 310 311 311 311 311 310 309 309 309 308 308 306 306 307 308 308 307 307 307 306 306 305 304 303 303 302 301 300 299 298 297 297 297 296 296 296 296 296 296 296 296 296
322 323 322 322 322 322 322 322 321 322 322 322 321 321 321 321 321 321 320 318 318 318 319 319 318 317 316 316 316 316 314 314 314 314 314 312 311 309 308 308 308 309 309 310 311 311 312 312 311 311 310 308 309 308 307 307 308 307 307 307 308 307 306 306 305 305 304 303 302 301 300 299 299 298 298 298 298 298 296 296 296 295 295 296 296
321 322 322 323 323 323 323 323 322 323 323 322 321 321 321 321 321 321 321 320 320 320 321 320 320 319 318 317 317 316 315 314 314 314 313 311 310 309 308 307 307 308 309 310 310 311 311 312 311 311 310 309 309 309 308 308 308 308 307 306 307 307 306 305 305 304 303 302 302 301 300 300 301 300 300 300 301 300 298 297 297 297 296 296 296
323 322 322 322 323 323 323 323 323 323 322 322 322 321 321 322 322 322 322 322 322 322 322 322 321 320 320 319 318 317 316 315 314 314 313 311 310 310 308 306 307 308 308 309 310 311 311 312 312 311 311 311 310 309 309 308 307 307 307 306 306 306 305 305 304 304 303 302 301 301 300 301 302 301 301 301 302 301 299 300 300 300 299 296 295
323 322 322 322 323 323 322 322 323 323 323 322 319 317 319 321 322 322 322 322 322 322 322 322 321 321 321 320 319 318 316 315 314 313 313 312 311 310 309 308 308 308 308 309 310 311 311 312 312 311 311 311 310 309 308 308 307 307 306 306 306 305 305 304 304 304 303 302 301 301 300 301 302 301 301 301 302 301 301 302 302 300 297 295 295
323 323 323 323 323 323 323 322 323 323 323 321 317 315 316 318 320 322 323 322 322 322 322 322 322 321 321 320 320 319 317 315 313 313 313 312 311 309 308 307 306 307 308 309 310 310 310 310 310 309 309 310 309 308 307 307 306 306 306 305 305 305 304 304 303 303 303 301 301 300 300 301 302 302 301 301 301 302 302 301 300 297 295 294 294
323 323 323 322 322 322 322 322 322 322 322 321 317 316 318 318 319 321 323 323 323 323 322 322 322 321 321 321 321 319 317 315 313 312 312 311 310 309 307 305 304 304 306 307 308 308 308 308 308 307 308 308 308 308 307 306 305 305 305 304 304 303 303 302 302 302 301 300 300 300 300 301 301 301 302 302 301 301 301 300 299 297 296 295 294
321 322 321 320 321 321 320 320 320 321 321 320 318 317 318 319 319 320 322 322 321 321 321 321 320 320 320 320 320 319 318 316 314 313 312 311 309 308 307 305 303 302 303 304 306 307 307 306 306 307 307 307 306 307 306 304 303 304 304 303 303 302 301 301 300 300 300 299 299 300 300 301 300 300 301 301 301 301 301 300 299 298 297 296 294
319 320 319 318 318 318 318 319 320 320 321 320 319 318 319 320 319 318 319 320 319 318 318 318 318 318 318 318 318 317 318 316 315 315 313 310 309 307 304 303 302 302 303 304 305 305 304 304 305 306 307 306 305 305 304 302 302 302 302 302 301 300 300 300 300 300 300 300 300 300 300 300 300 300 300 301 301 301 300 300 299 298 297 296 295
317 316 314 314 314 315 317 319 321 321 320 319 319 319 319 319 316 314 316 317 315 315 316 316 316 317 317 317 317 316 317 316 316 315 312 309 307 305 303 303 303 302 303 304 303 302 301 303 304 306 305 304 303 302 301 300 300 300 300 300 299 299 299 300 301 301 301 301 301 300 300 300 300 300 300 300 300 300 300 299 299 298 297 297 296
317 315 313 313 314 315 316 318 319 319 319 319 319 319 319 317 314 313 315 315 314 314 315 314 315 315 316 317 316 316 316 315 315 314 310 307 306 305 305 305 304 303 303 302 302 301 301 301 302 302 302 301 300 299 298 297 297 297 297 298 298 299 300 300 300 300 300 300 300 300 300 300 299 299 300 300 299 299 299 299 299 298 298 297 297
317 316 315 316 315 314 315 316 317 317 318 319 319 319 317 315 314 314 315 314 314 315 314 313 314 314 313 314 315 315 315 313 313 311 309 307 307 307 307 306 305 304 303 302 301 301 301 301 300 300 300 299 298 297 296 295 294 294 295 296 298 298 299 299 299 299 299 299 299 299 299 299 299 299 299 299 298 298 298 298 299 298 298 297 297
315 314 313 313 313 312 313 313 313 314 314 315 318 318 317 316 315 315 314 314 315 314 313 313 312 311 311 311 312 313 312 310 310 309 307 307 308 308 308 307 307 306 304 301 300 300 299 299 299 298 298 297 296 295 294 294 293 293 294 296 297 297 298 298 299 299 299 299 299 298 298 299 298 298 298 298 298 298 298 298 298 298 298 298 297
312 311 310 309 309 309 308 305 305 309 308 307 310 314 316 316 316 315 313 314 314 314 313 312 311 309 309 308 308 309 308 308 308 307 305 306 309 309 308 308 307 306 303 301 300 300 299 299 299 298 298 297 296 296 296 295 295 294 294 295 296 297 297 298 298 298 298 299 298 298 298 298 298 298 298 298 298 298 298 298 298 298 298 298 297
Wind_Speed
4 3 3 3 3 4 5 6 6 6 7 7 6 6 6 6 6 6 6 5 5 5 5 5 5 5 5 5 6 6 5 4 5 5 5 5 5 5 3 3 4 6 7 7 5 4 6 5 4 5 4 4 4 3 2 0 2 3 4 5 6 6 5 5 5 5 4 4 5 5 6 6 6 6 6 7 7 6 7 8 6 6 7 8 7
4 3 4 5 4 5 5 5 6 6 7 7 6 6 6 6 6 6 5 5 5 5 5 5 5 5 6 6 6 5 5 5 6 5 5 5 5 5 4 3 4 4 6 7 7 5 6 6 5 5 5 4 4 3 3 2 0 1 2 3 4 5 5 5 5 4 4 4 4 4 4 4 5 5 5 6 6 6 6 7 5 5 6 6 7
4 5 7 7 6 6 6 6 6 6 7 8 7 6 6 6 6 5 5 5 4 5 5 5 5 5 6 6 5 5 5 6 6 6 4 4 5 4 4 3 3 4 5 6 7 7 6 6 6 6 6 5 5 4 4 3 2 1 1 1 2 4 4 4 4 4 4 3 3 3 3 3 4 4 4 6 6 5 6 6 5 6 6 6 7
5 8 9 7 6 7 7 7 6 6 7 8 7 6 6 6 5 4 4 4 4 5 4 4 4 4 5 6 5 5 5 5 6 6 5 5 5 5 5 3 3 3 4 5 7 8 8 6 6 7 7 6 6 6 5 4 3 3 3 1 1 2 4 3 3 3 4 4 3 3 3 2 3 2 3 4 5 5 5 6 6 6 6 6 6
8 10 8 6 6 6 6 6 5 5 6 6 6 6 6 5 5 4 4 5 5 5 4 4 4 3 4 5 5 5 4 4 5 5 5 5 4 5 6 4 3 4 4 5 6 8 9 8 7 7 7 7 7 6 6 5 5 4 4 2 1 1 1 3 2 2 3 4 4 3 3 3 2 1 2 3 4 5 5 5 5 5 5 6 6
7 10 7 5 5 5 4 5 5 5 5 6 6 6 7 6 6 6 5 5 5 6 5 4 4 4 4 4 4 4 4 4 4 4 4 4 3 4 4 5 5 5 5 5 5 7 9 8 7 7 7 7 7 7 6 5 5 5 5 5 3 2 1 2 2 2 2 2 3 4 4 3 2 1 1 2 2 3 5 6 5 5 5 5 6
5 7 5 4 4 4 4 5 4 4 6 6 6 7 7 6 7 7 6 6 6 6 6 4 4 4 4 4 4 4 4 4 3 4 4 4 3 3 3 4 5 5 5 5 5 6 7 8 8 6 5 5 6 6 6 6 5 5 7 6 3 3 2 1 1 1 2 2 2 2 3 3 3 2 0 1 1 2 4 5 5 5 5 4 6
3 3 4 4 4 3 4 4 3 4 6 6 6 7 7 5 6 6 5 6 7 7 6 5 4 3 3 3 3 3 3 3 3 4 4 4 5 4 4 4 5 6 5 6 7 6 5 6 7 7 5 3 4 4 6 7 6 5 6 6 4 3 3 2 3 2 0 1 1 1 1 2 2 2 1 1 2 2 2 4 5 5 5 4 5
3 3 3 3 2 3 3 4 3 4 5 5 6 6 6 5 5 5 5 5 6 6 6 5 4 4 3 3 3 3 3 3 3 3 3 5 6 6 5 5 6 7 5 4 6 5 4 4 6 7 6 3 2 2 4 6 6 5 5 6 5 4 3 3 4 5 4 2 1 1 1 0 1 2 2 1 1 2 2 3 4 5 6 5 4
3 3 3 2 2 2 3 3 4 4 5 5 5 5 5 5 5 5 5 5 6 5 4 4 4 4 4 3 3 3 3 3 2 3 3 4 5 5 5 4 4 5 5 5 6 6 5 4 4 4 5 4 2 1 3 5 7 7 6 7 6 5 4 4 6 7 6 5 3 1 1 1 2 2 2 2 2 2 2 3 3 4 5 6 5
3 2 2 2 1 1 2 3 3 3 4 4 4 3 4 5 6 5 4 4 4 3 3 3 4 4 3 3 3 3 3 3 3 3 2 3 4 3 3 3 4 4 5 7 7 6 6 5 5 5 5 4 2 3 4 4 5 7 7 8 8 7 6 5 6 7 7 7 6 4 2 2 2 2 2 2 2 2 2 4 4 4 4 5 6
3 3 4 3 2 2 2 2 2 3 3 4 3 3 4 4 5 5 5 5 4 3 3 4 4 4 4 4 3 3 3 3 3 3 2 2 2 1 1 2 2 2 4 6 6 5 3 3 3 5 4 4 4 3 5 5 6 7 8 8 8 9 9 8 7 7 7 7 7 7 6 4 3 3 3 3 3 2 3 3 4 4 5 5 6
4 4 5 5 5 4 2 2 2 2 2 2 2 3 4 4 4 4 5 6 4 4 5 6 6 5 5 4 4 3 3 3 3 3 3 2 2 1 1 1 1 0 0 1 2 3 1 1 1 2 3 3 4 3 3 6 7 7 8 8 8 8 9 9 9 8 7 7 6 8 8 7 6 5 4 3 3 3 3 4 4 4 5 5 5
5 5 5 5 5 5 3 3 2 2 1 1 2 3 3 4 4 4 4 4 3 4 5 6 5 4 3 4 4 4 4 3 4 3 3 3 3 2 1 1 1 1 2 2 1 2 2 2 0 2 4 6 5 3 2 4 7 7 8 9 8 9 9 9 9 9 10 9 8 8 9 9 7 6 6 5 5 4 4 4 5 5 4 5 5
5 5 6 5 5 4 3 2 3 3 2 2 2 2 2 3 3 3 3 3 3 3 3 4 4 3 3 2 2 3 4 5 5 3 2 2 2 3 2 2 2 1 1 1 2 2 3 3 2 2 2 5 6 6 4 5 8 7 6 9 9 9 10 9 9 10 10 12 11 9 10 11 9 8 6 6 6 5 5 5 5 6 5 5 5
5 5 5 5 4 3 3 2 3 4 3 3 3 2 2 3 3 3 4 4 4 3 3 3 4 4 3 1 2 3 2 3 5 3 0 1 2 3 3 3 2 1 1 1 1 2 3 3 4 3 2 2 3 4 3 4 6 4 3 6 7 9 11 9 9 10 10 11 12 11 11 11 10 8 7 7 7 7 6 6 6 6 6 6 6
4 5 6 5 4 3 3 2 3 4 5 3 3 3 2 2 3 3 4 4 3 3 3 3 3 4 3 2 3 3 0 1 3 3 2 0 0 1 1 2 2 2 1 2 2 1 1 1 2 3 3 3 3 3 3 3 3 1 2 2 2 5 8 7 7 9 10 11 11 11 12 12 11 9 8 7 7 8 8 8 8 7 7 7 7
4 5 6 6 6 4 3 3 3 4 4 4 4 3 2 2 2 3 3 3 3 4 4 3 3 3 3 3 3 3 2 2 3 1 1 2 2 2 2 1 1 2 1 2 2 2 2 1 1 2 2 3 4 3 4 4 3 2 1 1 0 2 3 3 4 6 8 10 10 11 11 12 13 11 9 8 8 8 9 9 9 9 9 9 9
5 5 6 6 6 6 6 5 5 5 5 5 5 4 3 2 1 1 2 2 3 4 4 4 3 4 4 4 3 3 4 3 1 2 1 2 3 3 4 4 4 4 3 3 2 2 3 3 2 3 2 4 4 3 4 7 6 4 2 2 1 2 2 3 4 5 6 7 9 10 11 12 14 13 12 11 11 11 11 10 10 10 11 11 10
6 6 6 6 7 7 7 7 6 6 6 5 5 4 3 3 2 1 0 1 2 3 3 4 4 4 5 5 4 3 3 4 2 3 3 2 5 5 6 8 8 8 6 5 4 4 5 6 6 6 5 5 5 5 6 8 6 4 3 2 2 1 2 3 5 5 5 6 7 8 10 11 13 13 14 15 15 14 14 13 11 11 12 12 12
7 7 7 7 7 7 7 7 7 6 6 6 5 5 4 3 3 3 2 2 1 0 1 2 3 3 5 5 4 3 4 4 4 5 5 3 4 5 6 8 10 11 8 7 7 6 7 9 9 8 7 6 8 8 8 7 6 5 5 4 3 2 1 2 3 4 4 5 6 5 5 8 10 12 14 15 16 16 16 16 13 13 14 14 14
8 7 8 7 7 6 6 6 7 7 6 6 6 6 5 5 5 4 3 2 2 2 2 1 0 1 3 4 4 3 3 3 3 4 3 2 2 5 5 6 8 10 9 9 8 8 8 10 10 9 8 8 10 9 8 7 8 7 6 5 4 3 2 2 3 4 4 4 4 4 3 2 5 9 12 14 14 14 15 15 15 15 16 16 16
8 8 7 7 7 7 7 7 8 7 7 7 7 7 7 7 7 6 5 4 4 4 3 3 2 2 3 3 3 2 2 2 3 3 2 1 3 5 7 8 9 9 9 9 9 9 9 10 10 10 10 10 11 11 10 10 10 9 8 7 6 5 4 3 4 4 4 5 6 7 5 3 1 3 7 10 12 13 13 13 13 14 15 16 18
8 8 7 8 8 8 8 8 8 8 8 8 8 8 7 7 7 7 7 6 6 5 5 5 4 4 4 2 1 1 1 1 3 2 2 3 4 4 7 8 9 9 9 9 9 9 10 10 10 11 11 11 11 12 12 12 10 9 9 9 8 7 7 7 6 5 5 6 8 8 7 6 4 1 3 5 9 11 11 12 13 14 14 15 18
8 8 7 8 8 9 9 9 9 9 8 8 8 7 7 7 7 7 8 8 7 7 7 7 6 5 5 4 4 3 3 3 2 1 2 4 4 4 7 8 7 8 8 8 9 10 10 9 9 10 10 11 11 11 11 11 11 9 8 9 9 8 8 8 7 6 6 6 6 6 6 6 6 5 4 3 3 4 5 7 9 11 12 13 15
9 8 8 8 9 10 10 10 10 9 8 8 8 7 7 7 8 8 8 8 8 7 7 7 6 6 5 5 5 5 5 5 4 2 2 3 4 4 5 6 6 7 7 7 7 8 9 9 9 9 10 10 10 10 10 10 10 10 9 9 9 9 9 8 7 7 7 6 6 6 6 5 4 4 5 6 5 3 2 4 5 6 8 9 11
9 8 8 9 10 10 10 11 10 10 9 7 7 7 7 7 8 8 8 7 7 7 7 7 7 7 6 6 6 6 6 5 4 3 2 1 3 4 4 4 4 4 5 6 6 7 7 8 9 9 9 9 9 9 10 9 10 10 10 9 9 9 8 8 7 7 7 7 7 6 6 6 5 4 4 5 5 5 5 5 5 6 7 8 9
11 10 9 9 10 11 11 11 10 10 9 8 7 7 7 7 7 7 7 7 7 7 7 7 7 7 6 6 6 6 6 6 5 5 4 2 2 4 4 3 2 3 4 4 5 6 5 6 8 8 8 8 8 8 8 8 9 9 8 8 8 8 7 7 7 7 7 6 6 6 6 6 5 5 5 4 5 5 5 6 6 7 8 9 10
12 11 10 9 10 10 10 10 10 10 9 9 8 8 7 8 7 7 7 7 7 7 7 7 7 6 6 6 6 7 7 6 6 6 5 4 2 2 2 2 2 1 3 3 3 5 5 5 6 7 7 6 6 6 6 6 8 8 6 6 6 6 6 5 5 5 5 5 5 5 4 4 4 4 4 4 3 3 3 4 5 6 7 8 9
14 12 11 10 10 9 10 10 9 9 9 9 9 8 8 8 7 7 7 6 7 7 6 6 6 6 6 6 6 6 6 6 6 6 6 5 3 1 1 2 2 2 1 3 3 4 5 5 6 6 6 6 5 6 6 5 5 6 5 5 4 3 4 4 4 4 4 4 4 4 4 4 4 4 4 4 3 4 4 5 5 6 7 8 8
15 13 12 11 10 9 9 9 9 9 9 8 8 8 7 7 7 6 6 6 6 6 6 6 6 6 6 6 6 6 6 5 6 6 5 5 4 2 1 0 1 3 1 2 3 4 4 5 6 6 6 6 5 5 5 4 4 5 5 3 2 4 5 5 5 5 5 6 6 6 6 6 6 6 6 6 7 7 7 8 8 9 9 10 10
14 14 13 11 11 10 9 9 9 9 8 8 8 7 7 6 6 6 5 5 5 5 5 5 5 4 4 5 5 4 4 4 5 5 5 5 5 4 4 3 3 2 1 2 5 5 5 4 5 5 5 5 4 4 4 4 4 5 4 2 3 4 4 6 8 7 6 7 8 8 8 9 9 10 10 10 10 10 11 11 11 11 12 12 12
13 14 14 12 11 10 10 10 9 9 8 8 7 7 7 7 6 6 5 4 4 4 4 4 3 3 3 4 4 4 3 3 3 3 4 4 4 4 4 4 4 3 2 3 6 7 5 4 4 4 3 3 3 4 3 3 2 3 3 3 4 4 2 4 7 9 9 8 8 8 8 9 10 11 11 12 12 13 13 14 14 14 14 14 14
12 13 14 13 12 11 11 10 9 9 8 8 7 6 7 7 6 6 5 4 4 4 3 2 2 2 2 2 3 3 2 2 2 2 3 3 3 4 4 4 5 4 3 3 5 6 6 5 4 4 3 2 2 3 3 3 2 1 1 2 3 3 4 3 5 9 11 10 8 8 8 8 9 10 11 12 13 14 14 15 15 16 17 17 17
11 12 13 14 13 12 12 11 10 9 8 8 7 7 6 6 6 5 5 4 4 4 3 2 2 2 1 1 2 2 2 2 1 2 2 2 2 4 5 5 5 5 4 3 4 5 6 5 4 4 3 2 1 2 2 1 2 1 1 2 2 2 4 5 3 7 11 10 8 8 8 8 9 10 12 12 13 13 14 14 15 16 17 18 19
10 11 13 14 14 13 12 12 12 10 9 8 7 7 6 5 5 5 5 4 3 3 2 2 1 1 1 1 1 1 1 1 1 1 2 2 2 4 4 4 5 5 5 4 3 4 5 5 3 2 2 2 2 1 1 1 0 1 2 2 3 2 4 6 4 6 10 12 10 9 9 10 10 11 12 12 13 13 14 14 15 15 16 17 18
11 11 12 13 13 13 13 13 13 12 11 10 8 7 6 5 5 5 5 4 3 3 3 2 2 2 2 2 2 1 1 1 2 1 1 1 1 2 2 3 4 4 4 3 3 3 3 4 3 2 1 2 1 1 2 3 2 3 3 4 4 4 4 7 6 6 10 13 12 13 15 14 14 15 13 12 12 12 12 13 14 15 15 16 17
12 12 12 13 13 13 13 13 13 13 12 11 10 8 7 6 6 5 6 5 5 5 5 5 5 4 4 4 4 3 3 3 2 1 1 1 0 0 0 1 2 3 3 3 3 2 2 3 3 2 1 0 0 1 2 4 4 4 5 7 6 5 6 8 8 6 7 8 10 12 14 14 15 16 15 14 12 10 11 12 13 14 15 16 17
14 13 13 13 13 12 12 12 12 12 12 12 11 9 8 7 6 6 6 7 7 7 7 6 6 7 8 7 7 7 7 6 4 3 2 2 0 1 1 1 1 2 2 2 2 2 2 2 1 1 1 0 1 2 2 4 4 4 6 9 9 8 8 9 10 8 6 7 10 12 15 16 16 16 16 16 14 12 12 12 12 13 14 16 17
15 14 13 13 12 12 11 11 11 11 11 10 10 9 8 8 7 6 7 7 7 7 8 7 8 9 10 10 10 11 11 10 9 8 8 8 7 5 4 2 2 2 2 2 2 2 2 2 1 1 1 1 1 2 3 4 5 6 7 9 10 11 11 11 11 8 6 8 11 12 14 15 14 13 14 14 14 14 15 14 12 12 14 15 16
13 13 13 12 12 12 11 10 10 11 10 10 9 9 8 8 8 7 7 7 7 7 7 8 8 9 11 11 12 14 14 13 12 12 13 12 10 9 8 7 5 5 4 3 3 3 3 3 3 2 3 4 3 3 4 4 6 8 8 9 11 12 12 13 13 8 6 9 11 12 13 12 10 11 11 10 11 13 15 12 8 10 15 17 17
12 11 11 11 11 11 11 10 10 10 9 10 11 11 9 9 9 8 7 7 7 7 7 8 8 9 10 10 12 14 15 15 15 14 14 12 10 10 9 8 7 5 4 4 5 4 4 4 3 3 4 6 4 4 4 4 5 7 9 10 12 13 13 13 13 9 5 7 11 14 14 12 10 11 11 9 10 11 10 7 7 12 17 18 17
11 10 10 10 9 9 9 9 8 8 8 10 13 14 12 12 10 8 7 7 6 6 7 7 7 8 8 8 8 10 12 14 15 15 14 13 12 12 12 10 9 9 7 6 4 2 2 3 2 2 4 5 5 4 4 4 6 8 9 11 12 12 12 13 14 11 6 8 13 16 16 12 9 11 12 10 10 10 9 10 14 17 17 17 17
10 8 7 7 6 6 7 8 8 8 8 10 12 12 12 12 11 10 7 6 6 5 6 6 6 6 6 7 7 7 8 10 12 12 14 15 15 15 14 12 12 11 10 9 6 2 1 1 1 3 3 4 5 4 3 5 8 9 10 11 11 11 12 13 14 13 11 12 15 16 15 13 11 13 13 11 11 12 12 15 18 18 17 17 18
8 7 6 5 6 8 9 10 10 9 10 12 12 11 12 12 11 10 7 5 5 4 4 4 5 5 5 6 7 6 7 7 8 8 11 14 17 18 16 14 13 12 11 10 7 5 3 2 1 3 2 4 5 4 3 5 8 9 10 11 11 11 13 14 15 16 16 15 14 15 15 14 12 12 14 13 12 12 13 16 19 20 20 19 19
9 9 8 7 9 11 10 10 9 8 11 12 11 11 11 11 11 10 7 5 4 3 2 2 3 3 4 5 5 5 6 6 7 8 10 13 18 20 16 14 14 12 10 8 7 6 4 2 2 3 2 3 4 4 4 6 7 8 10 11 12 13 14 16 17 18 17 14 12 12 14 14 12 13 14 14 13 13 13 16 19 21 22 21 19
9 8 7 8 9 10 9 9 8 8 11 11 11 12 12 12 12 10 7 4 3 3 2 1 1 2 2 3 4 5 5 5 7 9 10 12 17 18 15 13 13 13 11 8 6 5 4 2 2 2 2 4 5 5 6 6 7 8 10 12 13 14 15 16 16 16 15 13 10 11 14 15 13 14 15 13 13 15 15 15 18 20 21 21 20
8 9 8 8 9 9 8 9 10 10 10 11 12 13 13 13 12 9 6 5 4 4 3 2 1 1 0 1 2 3 3 5 8 9 11 12 15 16 14 12 12 11 10 8 5 5 5 5 6 6 7 9 11 11 11 11 10 10 11 13 14 14 14 15 15 15 14 11 9 10 15 16 13 14 15 15 15 17 16 16 17 18 18 19 19
9 10 10 9 10 11 10 10 10 8 8 11 13 13 13 13 12 8 6 6 5 4 4 3 3 2 2 2 2 1 2 5 7 9 12 13 13 13 12 11 10 8 7 7 6 6 7 8 9 10 11 12 13 14 14 15 14 12 12 12 13 13 14 15 15 14 14 12 11 12 15 15 14 14 16 16 16 18 17 16 15 15 17 18 17
11 11 12 12 11 11 10 9 8 6 7 10 12 13 13 14 13 9 7 7 6 5 5 5 4 3 3 3 4 4 4 5 6 9 13 12 10 10 10 9 8 7 6 6 6 7 8 9 9 11 12 13 14 15 15 14 14 13 12 13 13 13 14 14 14 15 15 14 13 11 13 15 14 14 16 17 17 17 16 14 13 13 15 16 15
11 11 11 11 11 10 9 9 8 7 6 8 10 11 12 13 13 10 7 6 7 6 6 7 6 6 5 5 6 6 4 4 6 10 13 11 7 8 8 7 6 5 4 4 4 4 5 7 8 9 11 12 13 13 12 13 14 13 12 12 12 13 13 14 15 14 13 12 10 10 14 16 15 14 15 15 14 14 14 13 13 13 14 14 15
Wind_Direction
189 196 213 223 225 225 215 200 198 192 195 205 200 203 208 202 201 201 199 198 193 192 194 193 196 204 213 215 215 216 212 213 208 201 197 175 178 208 200 146 151 160 163 171 181 185 182 187 196 189 192 199 198 232 256 6 43 75 68 57 52 47 49 55 66 76 81 79 83 94 100 100 98 97 100 99 93 91 94 89 92 104 106 101 94
203 207 224 214 208 230 233 212 202 194 192 203 205 203 209 206 207 210 204 204 197 190 195 198 198 199 208 214 211 214 210 211 213 207 205 181 176 206 212 167 161 165 162 166 175 181 181 190 202 201 198 192 193 225 250 263 331 103 69 56 47 39 36 36 43 60 70 67 76 90 94 102 107 108 106 106 105 104 107 100 92 93 101 105 98
200 217 227 214 201 210 227 224 205 196 199 202 204 207 212 208 205 210 209 211 201 190 193 200 204 196 202 210 206 211 208 209 215 213 210 191 181 196 205 197 183 176 166 161 169 178 179 188 200 204 203 201 201 206 230 258 272 229 193 61 31 30 30 25 27 36 54 65 68 76 81 98 109 115 116 117 119 117 119 116 105 95 93 99 97
211 222 223 213 204 197 206 218 204 201 210 204 203 208 210 208 201 203 208 206 200 195 191 197 206 194 197 203 203 212 211 209 216 215 213 208 191 184 192 204 206 204 184 165 168 175 176 182 194 198 202 207 210 207 209 225 244 243 230 223 337 16 29 30 37 30 37 54 54 51 54 74 99 115 120 121 126 128 131 123 112 107 104 104 102
223 229 223 210 205 198 204 209 200 208 217 209 209 208 205 204 199 197 203 202 197 195 190 189 191 189 199 197 197 215 217 211 218 221 221 220 206 197 200 192 193 213 206 185 173 175 179 182 186 187 196 208 212 212 211 209 212 236 258 256 265 287 29 43 54 47 30 34 38 37 39 44 64 103 115 118 132 137 137 129 122 123 114 111 110
228 236 226 210 202 200 216 212 203 213 220 217 215 212 209 202 200 200 197 199 194 190 193 189 179 174 182 191 195 209 223 218 213 219 222 219 205 204 206 194 197 207 211 207 188 182 184 186 191 184 187 202 208 209 213 212 204 215 242 244 248 245 189 54 36 58 51 29 27 24 30 33 35 54 107 124 142 151 145 142 142 139 127 127 132
226 233 210 202 196 189 219 219 205 215 225 224 219 222 218 200 203 207 195 196 193 190 195 189 184 172 165 182 190 193 216 220 216 218 213 210 205 198 203 210 213 208 206 214 208 196 188 188 199 197 189 193 196 203 211 210 209 219 229 232 236 227 210 9 313 358 59 57 41 21 21 22 25 27 6 190 193 182 157 152 152 149 145 150 147
190 203 183 192 191 176 212 223 206 216 227 226 222 230 229 210 213 215 202 203 197 192 193 186 189 181 168 179 178 180 207 210 217 229 225 225 223 210 204 213 219 211 205 208 205 202 192 189 198 205 209 198 182 197 210 202 208 229 222 219 227 224 239 289 266 251 279 58 69 105 44 9 358 5 347 258 221 205 177 168 167 167 168 160 147
152 172 170 169 173 174 206 215 204 214 224 229 230 233 232 223 224 221 215 217 212 199 190 186 187 186 180 182 178 182 197 197 208 227 236 240 237 230 218 211 221 220 211 212 211 207 202 193 198 210 217 219 203 192 199 198 209 227 208 207 232 247 249 260 252 243 232 211 122 125 146 306 311 315 318 323 267 228 218 202 188 185 180 168 155
151 172 167 148 161 187 213 213 204 213 224 232 237 241 238 231 228 223 217 221 224 211 191 190 189 184 180 181 187 188 189 189 204 223 233 244 243 245 240 218 220 223 215 221 227 223 216 198 193 216 224 224 239 242 212 212 224 230 212 203 226 258 262 242 241 247 242 233 222 181 181 279 301 297 294 315 316 280 251 236 218 202 186 176 175
139 153 145 136 155 204 233 228 220 220 228 233 230 236 239 231 226 219 214 214 214 209 208 209 200 188 180 181 187 183 184 179 186 208 220 241 237 240 257 245 231 236 240 240 237 232 217 188 178 198 209 204 222 274 269 260 250 244 237 218 215 234 251 244 239 248 252 247 244 239 238 267 289 293 286 289 302 297 262 243 230 218 203 190 189
113 123 127 132 142 176 211 219 231 228 231 238 223 223 232 230 225 213 207 204 198 204 216 213 204 195 189 187 181 175 173 163 171 183 177 214 220 201 242 254 239 243 259 257 254 251 220 157 160 185 188 177 176 226 265 274 273 270 269 256 232 225 230 237 238 246 265 265 252 250 252 251 258 277 284 273 267 275 267 251 236 227 222 208 198
103 109 121 132 138 145 164 190 220 220 216 233 227 224 230 230 224 211 206 203 201 206 207 210 209 205 202 194 184 182 176 169 181 186 176 182 183 178 168 110 100 124 259 275 289 301 319 75 149 198 206 209 188 195 242 262 261 261 271 276 271 254 241 239 233 232 256 272 258 252 255 254 254 264 280 283 267 260 265 264 249 239 238 226 211
100 100 102 111 124 133 152 170 177 183 176 188 199 211 222 221 217 216 216 212 211 207 206 218 222 216 217 206 186 179 181 193 197 192 195 202 199 204 189 155 132 71 58 44 39 8 27 46 67 201 221 236 231 213 214 264 271 266 262 265 275 281 274 262 250 240 240 243 247 253 258 261 261 261 271 283 284 272 261 262 261 254 250 244 232
101 98 91 87 92 105 120 135 144 158 166 167 169 184 206 208 212 216 217 214 211 211 222 241 251 242 223 221 216 191 186 197 189 179 215 235 239 242 240 235 241 305 359 39 49 40 50 56 65 104 201 223 230 232 229 264 278 285 284 273 269 272 272 267 265 263 253 242 242 245 255 263 267 267 267 271 281 280 264 256 256 258 256 252 245
101 96 87 78 73 81 86 88 110 129 134 143 147 159 196 201 207 212 221 227 211 209 234 248 262 262 243 248 261 239 221 198 168 121 314 260 266 265 259 253 261 295 319 36 48 56 66 69 75 82 95 146 199 214 212 245 259 266 302 291 275 265 263 263 263 264 263 255 246 241 247 259 266 271 269 265 271 275 272 264 255 253 255 254 250
93 85 80 77 73 70 72 78 84 100 116 129 137 152 184 197 203 206 226 244 219 203 225 236 249 269 280 289 258 250 348 189 165 80 39 48 335 308 314 279 286 316 339 29 14 12 29 33 88 95 87 91 111 123 138 178 208 203 28 359 295 269 256 256 262 258 258 257 252 246 245 252 258 261 263 264 267 269 272 270 264 259 254 254 255
87 82 84 86 86 85 86 95 89 84 96 108 118 134 153 174 198 197 211 234 217 210 217 224 231 236 245 248 256 299 342 219 198 97 87 97 67 40 55 44 33 37 25 49 31 15 11 348 58 90 82 80 90 98 117 127 120 79 67 152 166 292 261 266 273 259 254 252 250 249 246 247 247 246 253 262 264 265 265 264 265 265 259 251 248
93 84 85 88 89 90 91 95 94 87 85 86 88 91 91 88 117 187 204 202 202 225 217 206 213 206 215 222 236 297 311 282 215 115 161 135 106 85 69 64 65 66 58 59 56 35 28 19 55 97 96 78 87 91 86 86 84 92 136 162 55 8 307 302 286 261 255 251 247 248 247 246 242 238 242 245 247 251 255 256 257 260 259 252 244
98 89 83 81 82 85 87 90 88 86 82 76 72 66 64 62 55 69 56 157 177 226 217 202 213 197 194 209 218 244 263 267 232 179 219 193 134 113 83 76 71 67 63 61 62 54 43 39 56 78 79 70 77 78 76 81 88 102 108 92 60 54 241 255 262 266 272 266 257 252 251 251 246 242 243 241 240 243 247 251 253 254 255 255 253
99 90 81 74 74 76 81 84 77 70 68 62 60 55 50 54 52 53 43 46 83 199 192 195 218 197 186 194 201 212 218 233 222 212 243 248 137 127 109 93 75 66 67 69 66 63 60 59 65 71 71 66 63 68 85 96 91 77 62 50 46 39 340 282 287 302 309 294 280 276 271 261 249 246 249 245 243 246 247 246 248 252 252 250 254
99 89 81 73 67 65 68 72 65 59 55 51 55 58 58 65 66 65 62 56 61 60 72 93 186 183 181 183 180 190 192 196 201 204 241 293 102 120 118 105 86 74 74 77 75 74 76 74 75 75 75 72 67 70 87 86 69 59 50 47 48 43 24 354 350 349 352 351 339 349 356 305 260 253 257 255 254 257 253 248 249 255 256 253 255
105 92 81 73 70 70 68 67 62 55 52 54 62 69 70 69 68 67 68 74 86 87 84 79 74 119 159 179 183 191 195 173 166 173 170 113 108 111 104 98 94 88 83 84 85 84 83 80 79 78 78 78 78 82 84 75 70 72 72 70 70 65 55 34 22 19 24 37 42 43 46 49 58 247 254 257 258 259 256 252 252 254 256 256 256
109 96 80 75 78 78 75 71 64 56 57 63 68 71 71 67 63 59 58 61 70 77 77 77 80 100 120 130 123 125 135 123 138 158 150 134 137 127 115 107 99 97 97 96 93 86 82 81 80 80 81 82 83 84 84 80 80 81 77 72 68 64 59 51 46 46 48 54 57 55 54 58 55 352 260 247 252 257 257 257 255 250 250 253 254
114 101 83 80 82 81 78 72 67 63 65 68 68 65 62 62 63 61 60 58 58 63 63 61 62 70 79 76 67 69 62 53 63 110 133 138 146 134 120 116 114 120 124 117 104 91 82 78 79 79 79 80 82 83 83 83 82 75 68 64 61 57 54 50 47 44 40 37 40 43 45 49 44 23 1 335 303 286 274 272 268 259 256 261 262
119 106 93 89 88 85 83 79 76 73 74 72 68 62 56 61 67 64 62 60 58 61 60 56 53 50 52 59 59 56 52 45 34 44 127 147 153 145 126 121 126 134 133 125 111 96 85 76 73 77 78 76 78 82 82 83 80 71 62 60 60 58 53 49 44 41 39 34 29 24 21 24 28 17 359 352 354 353 315 300 294 280 274 277 279
124 115 107 102 97 94 91 87 84 81 81 80 76 68 61 68 72 67 64 62 62 65 65 63 58 54 54 58 67 64 56 53 45 44 66 131 152 154 148 138 134 134 130 121 104 91 87 82 72 69 75 77 76 80 84 83 79 73 67 65 64 60 54 50 46 43 43 40 36 32 27 25 25 18 5 353 345 337 319 307 300 293 290 291 290
131 126 120 116 111 107 101 96 92 89 88 86 84 82 77 78 77 71 66 63 64 68 71 73 67 63 62 59 69 70 59 57 55 50 51 60 137 162 172 177 160 145 141 130 107 91 83 82 78 68 68 75 76 76 79 80 78 75 73 72 67 59 51 45 44 42 38 37 36 33 29 27 27 23 15 5 350 337 322 310 305 301 299 300 299
138 136 132 129 123 118 111 105 100 96 94 92 91 92 89 89 86 79 72 67 69 69 71 74 70 67 66 63 69 71 61 58 58 56 58 61 106 177 217 251 256 203 161 143 116 98 79 65 73 74 70 72 77 76 72 77 85 82 75 69 59 50 46 32 24 25 22 22 21 17 16 13 12 11 2 1 356 336 320 310 307 305 304 304 306
142 143 140 138 133 126 119 113 108 104 101 98 98 98 96 97 95 90 85 79 77 75 73 73 70 67 65 62 65 65 59 57 58 59 61 62 80 147 241 277 295 302 181 137 108 88 82 69 64 68 74 72 72 76 70 68 87 87 75 67 51 27 24 8 356 357 349 346 345 341 343 340 338 340 333 331 328 317 311 308 306 307 306 304 303
143 146 144 143 141 135 129 123 119 115 110 106 104 102 101 102 101 98 95 92 90 88 84 79 74 72 68 62 62 62 60 61 61 60 60 59 67 82 84 74 3 350 357 140 124 88 78 82 76 67 70 73 70 79 77 61 71 79 73 68 36 4 357 344 336 329 318 317 315 311 311 311 309 310 309 307 305 302 300 299 299 299 298 296 295
148 149 147 147 146 143 140 136 133 129 123 119 116 113 110 109 107 104 102 102 100 96 97 94 88 86 81 73 71 70 67 71 72 67 63 58 56 67 76 79 84 59 20 100 114 106 91 92 98 88 81 81 72 77 84 69 62 72 72 68 40 22 355 326 330 337 330 316 311 304 300 298 296 294 292 291 290 291 291 291 291 290 289 289 290
156 152 149 149 150 148 146 143 141 140 135 131 128 125 123 119 116 113 114 115 108 102 104 108 104 97 96 93 87 83 80 85 94 91 84 80 73 76 80 83 89 88 79 105 118 124 119 113 117 109 105 106 83 76 84 77 62 62 63 51 40 39 15 316 317 331 342 334 319 313 304 298 296 293 291 289 287 286 285 285 285 284 283 282 282
164 157 152 151 152 152 150 147 146 145 143 141 138 135 134 130 129 128 126 125 118 111 112 122 119 105 102 110 106 101 98 104 115 105 97 98 96 91 82 82 88 78 69 104 124 132 132 137 145 131 117 117 103 92 89 77 66 55 51 35 28 25 11 352 309 315 335 341 328 320 316 308 305 301 298 296 294 291 289 286 285 283 281 280 279
169 163 157 156 157 157 153 149 149 149 149 148 146 145 144 143 144 141 137 134 130 127 131 146 147 129 122 120 110 113 122 132 135 109 107 101 90 96 88 81 87 82 72 84 111 130 136 144 162 154 131 121 113 111 110 87 56 17 359 1 4 6 356 355 331 310 325 337 335 328 325 319 315 312 308 305 301 297 295 291 288 285 282 280 278
176 171 165 161 162 163 160 158 157 156 156 154 153 151 150 152 154 151 150 152 154 158 156 157 158 170 238 235 169 160 170 172 187 169 147 137 110 112 114 108 108 105 99 98 103 126 140 145 155 153 141 151 137 85 4 271 272 337 336 328 324 332 342 343 333 306 319 335 341 335 334 330 327 325 319 310 304 299 294 291 289 286 284 281 279
184 180 174 170 171 172 171 170 166 164 163 161 160 159 160 165 169 171 173 174 180 188 187 195 218 241 266 270 257 226 235 239 232 217 181 169 147 138 135 128 124 119 115 113 111 126 147 143 144 147 148 172 160 64 360 337 325 321 333 331 311 307 325 333 325 303 318 334 337 335 338 338 335 334 331 323 314 305 297 292 288 285 282 280 278
196 192 187 183 182 183 183 181 177 173 172 172 173 172 174 183 191 198 201 206 212 210 208 214 219 225 233 245 254 248 240 246 257 265 278 287 346 61 143 135 117 115 119 125 122 127 143 139 146 160 150 155 280 353 3 351 333 322 337 336 320 309 320 328 325 308 310 322 321 324 331 330 329 332 334 334 326 315 310 303 293 287 282 279 279
203 202 201 198 195 194 193 192 190 183 178 180 180 179 183 191 202 214 221 229 229 221 217 217 219 229 234 232 236 237 231 229 229 230 229 207 117 5 326 329 89 121 132 140 141 143 154 169 184 181 157 155 305 321 344 348 330 327 344 338 326 321 322 322 319 307 301 316 316 319 324 324 327 330 332 332 327 321 324 319 302 290 283 280 281
208 209 210 209 205 203 199 196 195 188 184 188 191 193 198 199 204 216 224 226 224 221 224 225 225 232 234 229 226 228 232 234 224 212 215 214 201 203 218 214 196 198 189 183 202 205 195 204 235 240 224 218 230 330 337 345 342 338 343 336 324 322 322 320 317 302 292 315 320 319 321 319 320 323 324 323 314 312 322 326 316 300 293 292 291
211 212 214 216 215 212 207 201 196 192 191 192 193 198 201 200 203 211 215 215 218 222 226 229 228 229 230 228 224 223 231 242 235 223 228 231 213 200 208 210 204 209 211 217 233 241 238 245 261 270 277 277 291 334 336 343 346 337 332 327 320 320 320 318 318 305 287 309 317 317 318 310 301 306 311 307 295 296 312 324 317 296 298 303 298
217 217 217 220 220 219 216 209 201 198 199 207 217 223 216 203 200 204 208 212 217 223 228 233 235 232 232 232 228 229 237 246 244 237 236 235 218 207 216 217 207 205 221 242 247 249 260 275 283 294 302 298 302 331 337 342 342 330 326 325 318 319 318 317 320 315 292 309 317 316 316 309 295 297 301 293 283 286 298 295 267 275 293 301 299
224 222 222 221 221 224 225 223 221 219 221 232 241 238 223 209 203 202 210 215 214 221 228 232 235 235 237 236 231 233 238 240 239 238 238 232 220 217 223 220 213 212 217 233 243 248 276 291 298 309 314 310 306 315 328 341 337 325 323 320 313 316 319 316 317 316 312 325 321 313 311 308 295 293 294 290 283 279 273 265 270 284 296 300 298
232 231 229 220 216 224 229 235 242 243 241 239 234 226 218 215 208 201 203 206 203 212 223 228 234 234 234 232 222 216 221 227 230 232 234 229 218 217 222 219 219 218 209 207 210 205 241 281 300 300 309 319 318 317 328 334 327 318 314 312 309 312 312 309 307 305 308 319 316 306 304 304 299 292 289 289 287 280 273 276 286 294 299 301 298
230 235 238 220 219 233 239 242 244 242 239 236 227 221 221 217 202 188 185 189 193 207 219 227 238 237 230 227 218 207 210 224 224 217 222 221 212 211 215 214 214 212 203 205 215 225 224 201 256 284 297 322 324 324 318 313 313 311 310 310 309 307 302 299 299 298 300 305 304 298 298 300 301 294 288 289 290 283 280 287 292 293 296 302 298
231 236 240 229 229 239 247 250 245 233 230 231 225 216 209 197 183 173 169 176 190 200 209 228 253 259 254 247 239 223 212 216 212 203 210 215 207 203 203 202 203 203 203 211 221 230 229 213 259 293 310 321 320 323 316 308 307 308 307 306 304 301 296 293 291 290 291 289 285 288 293 297 303 298 289 289 289 284 283 286 288 289 293 300 299
226 221 218 213 217 230 243 246 234 223 222 217 204 193 186 177 169 163 159 168 179 173 164 176 249 262 263 257 256 245 221 216 216 205 201 202 195 189 184 184 192 200 207 212 216 225 230 217 241 272 267 270 281 287 291 297 302 302 300 297 295 292 289 289 287 286 287 283 269 271 284 295 302 298 291 291 291 288 287 286 286 288 290 294 298
197 189 191 198 205 214 227 229 219 215 211 195 182 181 179 173 169 166 164 169 165 148 136 122 112 136 161 215 244 244 213 218 224 204 186 181 180 178 176 176 184 199 210 216 226 241 247 247 250 255 260 270 279 281 283 289 295 298 299 295 291 288 286 289 290 289 290 286 269 269 282 293 299 296 292 293 293 291 290 288 287 286 284 287 294
180 175 176 180 182 182 188 199 201 198 192 184 181 183 184 180 178 179 181 179 167 150 142 127 110 127 155 149 150 135 163 207 217 193 176 174 175 176 178 174 174 184 205 224 241 249 253 258 263 266 270 277 281 284 287 291 293 298 300 295 293 293 291 290 290 290 290 288 281 277 282 288 293 293 292 292 292 290 289 289 288 287 286 288 291
169 166 164 163 164 164 167 178 186 180 179 184 185 187 190 188 186 189 195 187 172 158 149 137 118 123 147 145 131 121 147 183 185 171 169 173 176 179 181 182 178 175 192 224 247 259 263 270 275 278 281 285 287 289 291 292 295 298 291 285 289 293 288 285 288 291 291 288 285 281 280 284 289 293 294 294 291 287 286 287 287 286 288 292 292
168 166 166 164 161 159 159 165 168 164 173 188 191 192 195 196 193 197 209 200 183 175 163 146 127 120 125 133 134 125 120 138 147 154 160 166 181 191 194 200 196 182 184 210 230 256 272 283 287 286 289 291 292 293 289 287 295 297 284 276 282 287 285 287 291 292 289 287 291 293 289 290 294 295 296 298 294 290 289 288 286 284 285 288 290